Location: 10020 Water Well
(34.6728°N, 106.1750°W)
Time: 00:02:32
(UTC+00:00)

Daily predictions for brighter satellites

Satellite Brightness Start Highest point End
(mag) Time Altitude Azimuth Time Altitude Azimuth Time Altitude Azimuth
Cosmos 1842 4.1 01:27:39 10° NNE 01:31:03 29° ENE 01:34:27 10° SE
Cosmos 1937 Rocket 3.5 01:32:16 10° S 01:37:30 70° ESE 01:42:43 10° NNE
Cosmos 1743 4.4 01:35:25 10° SSW 01:39:02 40° W 01:42:40 10° N
Cosmos 2112 Rocket 4.2 01:35:22 10° N 01:40:27 53° ENE 01:45:34 10° SSE
Cosmos 1975 Rocket 3.8 01:39:43 10° NNE 01:43:36 31° ENE 01:47:26 10° SE
Cosmos 1680 Rocket 3.5 01:39:00 10° NNW 01:44:13 70° ENE 01:49:26 10° SSE
Cosmos 2233 Rocket 4.1 01:38:11 10° S 01:44:26 87° W 01:50:41 10° N
Cosmos 1707 4.4 01:42:40 10° NE 01:44:55 15° ENE 01:46:33 12° ESE
MOS 1 Rocket 3.6 01:40:54 10° NNE 01:44:58 36° E 01:48:55 10° SSE
Meteor 2-11 Rocket 4.4 01:38:53 10° S 01:45:00 77° E 01:51:10 10° N
ISS -3.4 01:45:16 10° SW 01:48:36 69° NW 01:51:58 10° NE
Sich 1 Rocket 3.8 01:48:53 10° SSE 01:53:08 46° E 01:57:27 10° NNE
USA 234 3.6 01:49:27 10° ENE 01:55:36 42° SE 02:01:44 10° SSW
H-2A R/B 2.1 01:55:23 10° SSE 02:00:07 50° ENE 02:04:58 10° N
Cosmos 1437 2.6 01:58:33 10° N 02:01:29 53° E 02:04:24 10° SSE
Cosmos 158 Rocket 4.3 01:57:19 10° NNW 02:02:32 69° WSW 02:07:33 10° S
Iridium 4 Rocket 3.9 01:58:29 10° S 02:03:10 64° W 02:08:20 10° N
ARGOS 3.5 01:59:50 10° SE 02:04:50 43° ENE 02:09:53 10° N
SJ 16-02 4.4 02:03:22 10° WSW 02:06:23 18° WNW 02:09:23 10° NNW
IRIS 4.4 02:02:44 10° SW 02:06:38 53° SSE 02:07:55 27° E
Okean 2 Rocket 3.3 02:08:29 10° SSE 02:12:48 48° E 02:17:08 10° NNE
HJ-1C 3.2 02:11:02 10° SSE 02:14:17 82° E 02:17:35 10° N
CZ-2C R/B 3.1 02:09:17 10° NNE 02:14:30 39° E 02:19:42 10° SSE
Okean-O 4.3 02:12:42 10° SSW 02:16:44 35° W 02:20:49 10° NNW
Cosmos 1844 4.4 02:12:43 10° SSE 02:17:41 31° ESE 02:22:36 10° NE
BREEZE-M DEB (TANK) 3.9 02:18:19 10° N 02:19:16 14° NNE 02:19:16 14° NNE
SJ-11-01 4.3 02:15:09 10° SSE 02:19:52 89° WSW 02:24:36 10° NNW
Cosmos 2263 Rocket 3.9 02:16:39 10° SW 02:21:39 34° WNW 02:26:42 10° N
Cosmos 1300 Rocket 3.5 02:20:13 10° S 02:24:32 65° E 02:28:55 10° NNE
DELTA 2 R/B (1) 3.6 02:19:14 10° WNW 02:24:48 75° NNE 02:27:38 30° E
CZ-2C R/B 3.5 02:20:09 10° S 02:25:12 66° W 02:30:35 10° NNW
USA 186 2.9 02:26:23 27° NE 02:26:23 27° NE 02:28:22 10° N
ATLAS 2AS CENTAUR R/B 3.8 02:21:16 10° SSE 02:27:21 25° ESE 02:33:32 10° NE
Cosmos 1844 Rocket 2.8 02:23:18 10° S 02:28:37 50° ESE 02:33:59 10° NNE
YAOGAN 1 4.3 02:26:22 10° SSW 02:30:17 34° W 02:34:14 10° NNW
GOES 2 Rocket 4.1 02:28:57 10° SW 02:32:31 27° SSE 02:32:56 27° SSE
Ariane Rocket 3.3 02:30:49 31° ESE 02:32:46 46° ENE 02:37:35 10° N
Cosmos 2285 Rocket 4.3 02:30:16 10° SSE 02:36:01 40° E 02:41:49 10° NNE
ATLAS 5 CENTAUR R/B 3.2 02:34:01 10° NW 02:37:57 87° WSW 02:52:52 10° SSE
IRS-1A Rocket 4.4 02:38:16 27° SE 02:41:26 58° ENE 02:47:11 10° N
Cosmos 2298 Rocket 3.9 02:37:24 10° SSW 02:42:43 88° ESE 02:48:04 10° NNE
Cosmos 1943 3.5 02:37:58 10° NNW 02:43:34 65° WSW 02:48:36 13° S
Meteor 1-15 Rocket 4.3 02:39:20 10° SSE 02:44:43 52° E 02:50:12 10° NNE
CENTAUR R/B 4.3 02:38:10 10° N 02:44:48 26° NE 02:47:17 23° ENE
Cosmos 1464 Rocket 4.1 02:39:35 10° S 02:45:41 76° W 02:51:51 10° N
CZ-4 R/B 4.4 02:44:12 10° SW 02:46:59 17° W 02:49:48 10° NW
Cosmos 1536 Rocket 4.0 02:43:26 10° N 02:47:10 44° NE 02:47:10 44° NE
MetOp-A 4.2 02:49:17 47° ESE 02:50:14 53° ENE 02:55:27 10° N
Cosmos 2151 Rocket 3.6 02:49:38 10° S 02:54:03 79° W 02:58:33 10° N
CZ-2C R/B 1.6 02:53:43 10° W 02:56:26 50° W 02:56:26 50° W
Exosat Rocket 3.6 02:52:28 10° SSW 02:58:47 74° ESE 03:03:53 10° NNE
STPSAT 2 (USA 217) 4.4 02:54:42 10° NNW 02:59:12 90° N 02:59:31 78° SSE
Cosmos 1092 Rocket 4.5 02:53:44 10° N 02:58:55 39° ENE 02:58:55 39° ENE
Cosmos 1025 Rocket 3.0 02:55:59 10° N 03:00:23 86° W 03:00:46 74° S
Cosmos 1867 3.4 02:55:51 10° NNW 03:01:19 76° ENE 03:02:04 64° ESE
Milstar 3 Cent rocket 3.0 03:01:06 10° SW 03:06:06 33° S 03:06:06 33° S
DMSP B5D2-2 4.4 03:09:00 10° N 03:14:14 64° WNW 03:19:26 10° SSW
SJ-6B 4.3 03:19:57 32° NW 03:19:57 32° NW 03:22:09 10° NNW
NOSS 3-2 (A) 4.1 03:14:43 10° NNW 03:22:26 60° NE 03:23:35 56° E
Cosmos 1125 Rocket 3.8 03:17:25 10° SSW 03:22:39 65° WNW 03:27:57 10° N
Resurs 01 Rocket 3.8 03:27:09 17° N 03:27:09 17° N 03:28:16 10° N
ISS -0.5 03:24:59 10° NW 03:25:57 11° NNW 03:26:13 11° NNW
USA 234 4.0 03:32:20 10° NNE 03:38:34 48° NW 03:44:47 10° WSW
NOSS 3-2 (C) 4.3 03:49:02 10° NNW 03:55:59 60° NNE 03:55:59 60° NNE
ATLAS 2A CENTAUR R/B 4.4 03:20:21 10° W 04:08:36 57° SSW 04:10:53 53° S
ATLAS 2AS CENTAUR R/B 3.4 04:09:58 10° SW 04:20:13 46° N 04:25:41 10° NNE
CENTAUR R/B 3.6 04:27:59 10° NNW 04:34:29 59° NW 04:34:29 59° NW
ATLAS 3B R/B 4.4 04:36:07 10° NNW 04:39:00 24° N 04:39:00 24° N
Cosmos 1980 Rocket 4.3 09:22:31 22° ENE 09:22:31 22° ENE 09:25:01 10° NE
Lacrosse 5 4.1 09:48:47 20° NNE 09:48:47 20° NNE 09:50:26 10° NNE
BREEZE-M DEB (TANK) 4.1 09:50:54 73° E 09:50:54 73° E 10:06:01 10° ENE
USA 267 4.2 09:46:57 10° NNE 09:51:38 38° N 09:51:38 38° N
ADEOS II 4.4 10:02:13 10° N 10:03:06 15° N 10:03:06 15° N
Cosmos 2278 4.3 10:15:56 49° N 10:15:56 49° N 10:20:05 10° NNE
IDEFIX/ARIANE 42P 3.5 10:14:18 10° N 10:17:40 41° N 10:17:40 41° N
USA 234 4.2 10:18:11 10° ESE 10:24:19 45° NE 10:30:27 10° NNW
MSX 3.8 10:18:56 10° NNE 10:24:44 76° ESE 10:24:50 76° ESE
ARIANE 5 R/B 4.1 10:21:17 10° N 10:23:30 25° N 10:23:30 25° N
SJ 16-02 3.9 10:34:42 10° NNE 10:38:00 21° ENE 10:41:18 10° ESE
H-2A R/B 3.2 10:34:38 10° SE 10:38:43 44° ENE 10:42:55 10° N
PSLV R/B 4.4 10:37:33 10° NNE 10:41:35 45° E 10:42:13 41° SE
Cosmos 1812 3.4 10:47:59 52° ENE 10:47:59 52° ENE 10:51:21 10° NNE
ERBS 3.9 10:54:40 31° NNE 10:54:40 31° NNE 10:56:34 10° NE
ASTEX 1 4.5 10:50:46 10° N 10:53:47 32° NW 10:53:47 32° NW
SL-4 R/B 2.8 10:55:28 45° SSE 10:56:10 50° SE 11:00:44 10° ENE
Cosmos 1500 3.8 10:54:57 10° N 10:58:44 56° E 11:02:27 10° SSE
CZ-2C R/B 2.7 10:53:45 10° NNE 10:58:54 73° ESE 11:02:26 21° S
Cosmos 1697 Rocket 4.4 11:01:19 17° NW 11:01:19 17° NW 11:03:57 10° NNW
Cosmos 1727 Rocket 4.3 10:55:31 10° S 11:01:47 67° E 11:08:04 10° NNE
Cosmos 1980 Rocket 3.0 11:04:19 33° NW 11:04:19 33° NW 11:09:07 10° N
Landsat 5 3.5 10:59:37 10° SSE 11:04:07 88° WSW 11:08:39 10° NNW
PAYLOAD A 3.6 11:00:37 10° N 11:05:19 84° WNW 11:07:00 40° SSW
Cosmos 468 Rocket 4.1 11:04:21 24° S 11:07:35 77° ESE 11:12:53 10° NNE
Cosmos 2322 Rocket 2.7 11:04:27 12° S 11:09:32 58° ESE 11:15:07 10° NNE
Meteor 1-10 Rocket 4.2 11:07:58 18° SSW 11:12:19 81° W 11:18:10 10° N
SL-16 R/B 2.2 11:13:21 20° SSW 11:17:24 86° ESE 11:23:06 10° NNE
Cosmos 2263 Rocket 2.8 11:12:46 10° NNW 11:18:22 60° ENE 11:23:57 10° SSE
Meteor 2-9 4.5 11:12:56 10° NNW 11:18:24 72° W 11:23:45 10° S
OE (NEXTSAT) 4.2 11:24:47 60° WSW 11:25:04 64° SW 11:28:29 10° SE
deb Chang Zheng 4 3.7 11:23:35 10° NNE 11:27:52 72° ESE 11:32:06 10° S
Lacrosse 5 4.1 11:27:59 10° NW 11:29:28 12° NNW 11:31:10 10° N
Cosmos 1238 Rocket 4.4 11:24:04 10° NNW 11:30:02 39° W 11:35:27 10° SSW
Cosmos 2227 4.2 11:24:57 10° NNW 11:30:36 83° ENE 11:36:13 10° SSE
Cosmos 1707 Rocket 3.4 11:27:34 10° S 11:31:53 82° W 11:36:13 10° N
Cosmos 921 Rocket 3.9 11:32:00 27° WNW 11:32:00 27° WNW 11:35:31 10° N
Centaur D-1AR AC-48 4.2 11:30:04 10° S 11:33:30 19° SE 11:40:31 10° ESE
IRIDIUM 104 4.4 11:32:34 10° NNW 11:37:40 56° W 11:42:44 10° SSW
Cosmos 2228 Rocket 4.3 11:38:52 22° WNW 11:38:52 22° WNW 11:41:56 10° NNW
Cosmos 1898 Rocket 4.1 11:34:35 10° N 11:39:48 62° ENE 11:45:01 10° SSE
Meteor 1-5 Rocket 4.1 11:36:21 10° NNW 11:41:32 55° W 11:46:50 10° S
Meteor 1-4 Rocket 3.2 11:43:45 28° W 11:44:10 29° WNW 11:47:16 10° NNW
X-37B 3.3 11:43:20 10° NNW 11:45:13 15° N 11:47:05 10° NE
USA 32 4.0 11:46:06 10° N 11:51:20 69° W 11:56:31 10° S
Cosmos 1536 2.9 11:49:07 10° N 11:53:13 86° E 11:57:16 10° S
ADEOS 3.6 11:49:41 10° N 11:54:49 60° WNW 11:59:55 10° SSW
